Theta_e
311 311 310 309 308 306 309 315 305 324 325 310 310 306 308 301 308 313 311 312 310 309 309 307 307 306 310 314 314 308 312 310 304 306 311 311 309 307 306 301 300 303 302 301
311 310 310 309 308 307 312 311 310 324 322 305 307 310 308 308 306 309 310 309 311 312 309 306 308 309 313 313 313 310 314 307 302 304 309 311 307 308 308 308 308 301 297 300
311 310 310 309 308 308 310 311 304 311 316 315 312 309 308 305 309 309 311 311 312 311 309 312 309 309 311 313 314 313 317 311 307 301 304 308 305 306 307 307 302 302 302 304
311 310 310 309 307 308 310 311 308 314 306 308 311 312 309 306 306 308 311 309 310 310 307 308 307 311 311 312 308 312 315 308 308 308 308 307 306 305 305 305 306 302 304 304
311 311 310 309 307 307 311 309 308 313 311 313 311 305 309 307 308 308 307 307 308 309 309 311 308 310 312 309 313 313 315 307 308 305 307 306 304 305 306 305 305 305 305 305
312 311 310 309 307 307 311 318 314 311 306 309 308 308 308 308 309 309 311 310 310 309 311 315 317 318 318 317 312 312 312 309 305 301 306 305 301 305 306 307 308 307 303 309
311 311 310 309 307 306 311 314 314 308 302 306 306 307 309 308 309 308 309 311 311 312 315 315 315 314 313 313 312 317 311 310 307 302 304 295 306 312 310 307 308 309 310 311
311 311 310 309 307 307 309 315 312 309 304 306 306 307 308 309 309 308 309 310 314 315 312 308 306 306 307 308 310 311 314 310 304 300 300 303 305 308 308 306 305 311 310 311
311 311 310 309 307 307 308 314 318 313 306 305 307 307 308 306 307 307 309 311 316 314 309 306 300 298 303 302 305 310 310 312 305 302 296 293 304 308 310 309 300 312 313 312
312 311 310 309 307 307 308 316 321 312 306 310 310 306 306 310 309 307 310 310 309 313 306 301 299 299 304 299 300 302 303 303 299 298 297 300 307 309 310 297 303 314 314 313
311 311 310 309 307 307 307 314 319 313 307 310 309 310 308 309 308 304 311 308 308 307 302 301 301 300 302 302 304 303 301 300 299 301 297 294 310 308 303 313 316 315 315 315
311 311 310 309 307 307 305 310 317 317 311 311 313 313 313 312 312 311 313 309 310 310 304 304 304 301 303 303 298 307 299 304 302 303 302 313 312 310 314 315 313 312 313 315
310 310 310 308 308 307 305 312 315 313 308 308 308 308 313 315 314 316 309 309 313 313 314 308 306 302 305 299 301 303 306 310 304 304 307 309 311 312 313 314 313 314 313 311
309 309 310 308 308 307 304 311 315 312 309 302 306 313 309 313 314 313 315 313 315 315 311 305 303 301 307 302 304 303 306 308 305 305 308 309 310 310 311 311 311 310 310 309
309 309 309 308 307 306 308 314 314 315 308 303 305 310 311 311 311 309 312 313 312 308 305 304 302 306 305 306 305 302 306 305 302 300 308 307 308 311 311 309 309 310 308 307
309 308 308 308 307 304 310 304 311 313 312 306 301 310 308 308 309 308 309 310 310 308 306 304 307 310 305 300 299 306 309 310 309 305 308 307 308 309 309 307 306 306 305 306
308 308 307 306 305 309 305 303 306 304 313 304 300 302 306 307 308 308 307 310 307 306 305 304 304 304 302 299 296 304 307 307 308 308 306 303 305 303 305 305 305 306 306 306
307 306 305 305 304 302 305 306 306 306 307 306 299 298 300 306 303 302 308 304 306 305 304 304 302 304 302 296 302 304 305 305 304 304 305 304 305 304 304 305 305 304 304 305
305 305 306 306 306 305 302 302 308 309 305 301 301 297 295 304 304 303 304 304 297 305 300 301 302 299 296 301 303 303 303 302 302 303 303 303 302 302 303 303 304 303 304 305
304 303 298 293 297 306 306 303 298 298 298 302 298 303 297 301 301 300 299 301 297 295 299 303 298 297 304 306 306 306 304 303 303 300 299 301 301 301 302 303 304 304 304 304
300 296 294 299 305 301 297 292 292 294 292 298 300 300 297 302 296 296 301 297 298 293 296 295 295 295 301 304 302 302 302 303 303 303 303 303 303 302 302 303 304 304 304 304
300 300 301 300 297 295 292 291 294 293 291 297 296 296 299 299 302 299 299 295 296 289 299 294 291 298 301 301 299 301 303 303 303 304 303 304 304 304 304 304 304 304 305 306
303 299 294 294 294 288 288 287 290 290 294 294 295 293 299 299 302 300 296 290 291 299 292 290 294 300 301 301 301 301 303 303 303 303 303 303 303 304 304 303 305 305 305 306
295 293 287 290 289 292 294 294 294 297 298 297 297 297 299 299 297 298 290 295 296 289 287 289 298 300 301 301 302 301 301 303 303 303 304 303 304 304 305 306 306 305 305 305
293 294 289 292 296 296 298 300 299 301 302 300 298 297 298 296 293 295 293 289 286 289 290 297 301 304 303 303 303 303 303 303 303 304 303 303 303 304 303 304 306 306 302 301
295 295 293 295 295 294 297 298 298 302 301 301 300 295 293 290 292 289 288 287 286 294 298 300 302 303 304 304 303 303 303 302 302 302 302 302 301 301 302 303 303 303 302 301
292 292 297 297 296 296 298 299 299 302 298 295 296 289 289 295 291 289 294 291 295 299 300 302 305 304 305 305 304 303 302 301 301 301 302 302 303 303 302 300 303 303 304 304
Wind_Speed
10 9 10 12 16 24 13 7 9 6 7 9 10 12 14 5 9 9 8 8 8 13 10 10 14 10 5 3 3 10 9 5 10 8 8 2 7 13 2 6 4 6 6 12
9 9 9 10 12 12 9 7 7 6 8 10 11 11 6 9 9 10 8 8 8 5 7 8 11 5 6 2 6 4 4 7 10 13 13 10 10 12 8 6 6 12 12 9
9 8 8 8 9 10 6 7 6 6 8 13 11 11 12 12 5 8 5 8 3 8 8 6 8 3 2 3 2 3 2 9 11 13 12 4 7 8 8 9 10 13 12 15
11 9 9 8 8 9 6 7 6 6 8 13 12 11 8 12 9 11 8 10 12 11 9 12 11 10 8 7 6 6 5 12 13 16 14 14 14 19 18 17 15 17 17 20
12 10 8 8 8 9 6 7 5 2 9 7 9 7 12 12 8 3 11 11 13 12 11 10 10 9 11 9 9 9 5 10 12 16 15 18 19 17 20 20 20 21 19 20
13 11 10 8 6 5 6 1 6 7 3 9 11 13 14 9 0 3 6 5 4 10 2 5 8 7 7 7 3 9 8 9 12 15 14 16 15 13 19 19 19 19 19 17
14 12 11 10 8 5 9 9 8 7 11 10 11 9 7 7 8 10 5 5 8 6 2 1 2 2 4 7 7 7 7 10 10 13 14 18 13 8 6 12 15 15 14 13
16 14 13 11 9 7 7 8 6 8 10 8 11 6 9 7 4 9 4 4 5 2 2 7 7 8 10 13 13 10 8 11 12 13 14 17 15 10 8 15 11 11 15 14
18 16 15 13 11 7 7 9 4 6 8 6 7 9 11 9 10 8 5 3 1 3 6 9 13 11 13 12 10 3 11 10 11 13 16 18 12 6 6 6 11 8 9 9
19 18 16 14 12 8 7 3 3 6 8 2 2 5 5 10 9 7 10 7 6 4 8 11 12 13 15 15 15 9 10 10 14 13 15 16 13 5 2 9 4 4 6 5
20 19 18 16 13 9 6 3 4 7 9 3 1 3 4 2 5 9 7 4 7 7 10 11 10 11 11 13 14 15 13 12 12 12 17 21 11 2 9 8 2 2 7 7
21 19 18 17 13 9 7 6 5 4 8 7 4 2 4 7 8 7 4 4 5 2 6 7 7 9 7 11 12 12 16 14 11 13 9 6 3 3 7 8 10 12 9 8
22 20 18 17 13 10 10 8 5 5 8 7 7 8 8 3 4 6 6 5 6 1 5 7 5 7 7 10 10 14 12 8 12 13 13 15 6 6 9 10 12 8 4 5
22 20 18 15 13 9 10 7 4 6 6 8 6 6 4 1 3 5 5 3 1 5 5 7 7 9 6 9 12 13 11 13 10 14 13 17 17 12 9 13 7 6 10 12
24 21 18 15 13 10 8 3 3 3 6 4 7 6 7 5 4 5 6 6 6 6 6 7 8 9 11 10 10 13 9 14 13 10 12 14 13 14 12 8 11 11 14 17
23 22 18 14 12 12 9 5 5 4 3 6 4 9 7 6 5 6 6 6 6 8 7 6 7 5 4 8 11 12 11 13 9 12 14 15 14 13 13 12 13 14 13 13
22 19 15 11 8 8 4 4 7 4 3 4 5 6 6 4 7 6 6 6 5 6 8 8 9 5 5 9 15 16 15 15 13 12 13 14 13 11 12 8 9 11 15 16
23 20 15 10 9 11 6 6 5 5 3 4 5 4 5 8 6 6 5 6 7 6 7 4 6 6 5 8 10 8 9 10 11 11 12 12 12 12 12 13 13 14 14 13
26 20 12 5 3 2 6 1 4 4 4 3 4 6 4 7 8 4 5 4 5 2 6 10 7 10 10 9 8 7 9 10 11 12 13 14 14 14 14 15 12 14 13 12
23 6 3 3 1 13 4 6 4 5 3 3 5 4 4 5 5 6 5 5 6 5 7 6 10 14 17 16 16 13 11 12 12 13 14 14 14 14 15 15 13 11 13 14
3 3 3 5 9 3 2 4 4 5 5 6 5 7 4 2 5 5 4 3 4 5 5 4 5 10 9 7 6 6 7 8 9 10 11 12 13 13 15 16 16 16 18 18
8 12 6 3 4 4 5 6 6 6 6 4 7 7 4 6 3 2 3 4 3 5 4 4 5 1 8 4 3 5 7 8 9 11 13 14 15 15 16 17 18 20 21 20
7 4 4 4 6 5 9 11 6 6 7 6 7 9 4 4 2 1 3 5 6 3 5 5 6 9 3 2 5 7 8 10 13 15 16 18 20 20 21 21 21 20 19 19
3 5 6 4 6 6 2 6 8 7 8 12 10 5 2 3 4 4 5 4 3 5 7 11 1 7 2 4 8 11 13 16 18 20 21 22 22 21 19 16 15 14 15 14
3 3 4 5 6 7 5 9 9 9 10 9 8 5 5 4 3 4 2 3 5 6 5 3 7 3 4 9 11 14 16 18 19 21 20 21 21 18 20 18 16 15 13 14
2 2 3 7 9 8 9 9 11 9 8 7 5 4 3 4 4 5 6 5 6 2 2 6 7 9 11 13 13 15 16 18 17 18 21 18 17 19 17 17 14 16 16 14
2 2 5 7 8 8 10 9 8 6 7 5 4 5 5 5 4 4 5 9 8 8 8 8 12 13 14 15 17 20 18 15 14 16 18 17 17 15 15 17 17 14 14 13
Wind_Direction
271 288 308 322 331 330 300 283 240 125 181 211 221 229 228 7 250 205 239 297 249 236 245 204 242 220 111 91 209 221 232 279 257 224 62 318 284 290 297 279 229 255 312 295
258 278 301 318 335 356 312 273 289 142 215 232 213 223 230 224 228 226 215 226 232 255 240 238 243 204 64 189 230 314 161 230 248 244 214 213 246 233 246 272 294 265 277 283
243 262 283 305 327 338 290 271 230 184 208 263 298 216 219 205 215 274 254 276 218 208 223 232 219 170 147 218 213 5 332 251 265 286 326 344 223 228 243 264 269 278 274 285
236 244 268 292 319 332 281 246 252 4 194 217 236 270 244 216 178 231 210 223 235 219 223 209 225 204 138 201 147 202 244 247 253 263 275 288 281 285 283 265 245 249 276 289
227 236 248 273 303 319 257 295 295 225 278 299 228 185 237 239 170 252 214 241 221 244 238 248 237 203 206 206 172 230 203 257 267 275 280 276 269 260 275 269 267 271 270 266
216 224 234 251 279 324 279 330 263 274 227 217 239 233 225 223 285 170 324 287 231 229 89 15 16 7 24 358 272 212 229 257 253 259 273 278 268 266 262 264 265 270 268 274
208 213 226 236 251 259 307 313 306 266 254 232 223 253 223 223 208 266 149 261 249 63 99 40 251 216 235 232 210 290 240 251 267 270 275 264 269 292 313 292 298 300 296 294
202 205 217 227 240 256 272 279 262 276 265 258 232 245 219 207 155 235 231 72 25 323 205 233 213 226 234 232 233 202 249 268 269 262 256 270 266 263 290 255 267 306 308 303
200 200 210 220 231 247 264 263 304 277 278 260 287 213 230 220 209 166 184 127 129 236 253 221 245 234 239 226 167 213 255 246 267 266 265 266 278 117 10 347 267 32 338 325
197 199 206 213 222 232 257 281 205 270 256 238 287 260 243 240 281 243 156 154 188 249 238 242 240 239 246 256 236 170 204 229 244 245 254 265 283 97 84 254 338 22 348 353
194 196 202 209 215 221 242 232 180 277 262 134 233 308 259 260 260 246 105 174 203 205 238 254 245 252 254 258 249 265 263 244 235 240 255 262 25 287 247 28 335 346 321 324
191 192 198 203 207 216 226 252 177 249 266 41 347 351 360 349 8 323 153 7 312 303 241 233 261 251 238 261 257 221 244 259 297 293 308 102 92 334 333 317 300 303 295 310
186 187 193 198 198 206 221 268 150 222 247 223 206 203 155 240 263 8 300 189 16 201 338 323 310 263 297 263 246 250 263 243 254 272 271 292 341 337 300 283 289 298 335 308
179 182 185 189 189 203 222 234 190 266 275 253 125 143 185 46 247 238 251 331 320 299 274 272 266 267 259 272 289 289 298 313 277 265 259 269 273 294 298 284 276 247 269 285
173 171 177 179 179 189 227 237 221 301 298 286 131 154 138 179 206 220 226 212 244 250 228 237 249 263 277 274 270 270 270 271 270 284 315 310 299 307 300 284 291 288 292 289
163 165 170 167 177 196 188 180 191 199 269 284 224 93 160 178 199 204 195 209 229 252 252 253 255 143 283 267 263 277 250 256 298 305 313 302 299 305 298 285 278 284 296 297
152 156 155 148 164 210 238 17 36 358 233 244 244 180 147 207 188 189 200 204 224 244 239 243 262 243 192 261 263 274 284 285 266 258 275 276 273 271 287 289 301 285 271 271
141 127 125 129 118 111 149 55 26 310 238 269 254 115 174 188 202 198 199 205 213 208 251 231 248 223 223 259 265 273 272 285 283 280 283 280 278 273 269 268 272 283 285 282
119 119 115 90 33 108 82 337 346 22 313 252 253 233 178 167 223 137 181 219 210 257 243 236 240 233 227 239 252 291 305 296 292 293 283 277 278 285 285 279 268 261 266 275
120 102 84 117 107 115 142 29 33 17 330 280 263 264 168 226 166 187 167 181 207 227 224 229 235 251 262 273 280 272 280 285 293 290 284 283 280 281 278 268 275 281 283 287
126 134 80 106 148 78 139 146 187 185 200 215 218 194 186 200 188 197 213 208 198 242 147 238 246 239 221 190 244 276 297 301 291 287 285 283 284 283 286 290 289 287 283 280
118 99 101 135 173 155 170 186 165 202 194 176 165 164 195 155 249 232 179 245 168 254 99 242 246 59 70 95 285 282 276 276 283 285 286 286 286 287 288 289 291 292 295 294
95 88 134 160 167 194 193 179 169 179 150 159 148 156 161 157 202 269 201 229 230 50 222 237 260 111 112 240 279 280 283 297 295 295 297 299 298 294 290 289 289 300 303 299
129 142 149 175 177 201 224 163 132 135 143 157 162 134 101 156 189 188 205 221 331 248 256 250 159 80 52 332 319 313 306 306 300 295 292 290 290 294 303 300 296 308 296 314
120 177 166 184 73 124 147 96 129 138 141 135 140 155 150 144 168 215 259 188 237 234 257 38 80 79 301 292 295 302 308 310 303 304 308 311 307 307 304 298 297 295 299 290
342 231 164 129 122 130 144 139 120 134 136 122 176 135 165 181 223 182 211 228 225 229 359 359 339 330 326 319 319 307 304 304 303 301 297 291 291 286 288 283 285 284 284 280
150 254 153 125 136 127 120 128 125 129 168 155 134 200 167 199 223 232 223 245 297 332 320 330 339 334 322 317 312 308 304 301 299 293 291 290 288 285 280 281 282 282 278 267